Boscobel, WI

12:23 AM CDT on April 27, 2017 (GMT -0500)
Boscobel

Weather History for KOVS - October, 2013

Change the Weather History Date:

Friday, October 4, 2013

  Actual Average (KPDC) Record (KPDC)
Temperature  
Mean Temperature 68 °F -  
Max Temperature 73 °F 68 °F 85 °F (1969)
Min Temperature 64 °F 44 °F 25 °F (1989)
Cooling Degree Days 4    
Growing Degree Days 18 (Base 50)    
Moisture  
Dew Point 64 °F    
Average Humidity 91    
Maximum Humidity 100    
Minimum Humidity 78    
Precipitation  
Precipitation 0.24 in - - ()
Sea Level Pressure  
Sea Level Pressure 29.91 in    
Wind  
Wind Speed 3 mph (ENE)    
Max Wind Speed 9 mph    
Max Gust Speed -    
Visibility 6 miles    
Events Fog , Rain , Thunderstorm    
Averages and records for this station are not official NWS values.
T = Trace of Precipitation, MM = Missing Value Source: NWS Daily Summary

Daily Weather History Graph

Daily Weather History Graph

Search for Another Location

Airport or City:

Trip Planner

Search our weather history database for the weather conditions in past years. The results will help you decide how hot, cold, wet, or windy it might be!

Date:

Astronomy

Oct. 04, 2013 Rise Set
Actual Time 7:03 AM CDT 6:38 PM CDT
Civil Twilight 6:35 AM CDT 7:06 PM CDT
Nautical Twilight 6:02 AM CDT 7:39 PM CDT
Astronomical Twilight 5:29 AM CDT 8:12 PM CDT
Moon 6:39 AM CDT (10/4) 6:19 PM CDT (10/4)
Length of Visible Light 12h 31m
Length of Day
11h 34m
Waning Crescent, 0% of the Moon is Illuminated
Oct 4
Waning Crescent
Oct 4
New
Oct 11
First Quarter
Oct 18
Full
Oct 26
Last Quarter

Hourly Weather History & Observations

Time (CDT) Temp. Dew Point Humidity Pressure Visibility Wind Dir Wind Speed Gust Speed Precip Events Conditions
12:53 AM 66.0 °F 64.0 °F 93% 29.85 in 0.2 mi NE 4.6 mph - N/A Fog Fog
1:53 AM 66.0 °F 64.0 °F 93% 29.88 in 0.2 mi Calm Calm - N/A Fog Fog
2:53 AM 66.0 °F 64.0 °F 93% 29.87 in 0.5 mi Calm Calm - N/A Fog Fog
3:53 AM 64.9 °F 64.0 °F 97% 29.89 in 0.2 mi Calm Calm - N/A Fog Fog
4:40 AM 66.0 °F 64.0 °F 93% 29.91 in 1.0 mi Calm Calm - N/A   Overcast
4:49 AM 64.4 °F 64.4 °F 100% 29.91 in 1.8 mi Calm Calm - N/A   Overcast
4:53 AM 64.9 °F 64.0 °F 97% 29.91 in 2.0 mi Calm Calm - N/A   Overcast
5:00 AM 66.0 °F 64.0 °F 93% 29.91 in 1.8 mi Calm Calm - N/A   Overcast
5:07 AM 64.9 °F 64.0 °F 97% 29.92 in 2.0 mi WNW 3.5 mph - N/A Thunderstorm Overcast
5:17 AM 66.0 °F 64.0 °F 93% 29.91 in 2.0 mi Calm Calm - 0.00 in Rain , Thunderstorm Light Rain
5:20 AM 66.0 °F 64.0 °F 93% 29.91 in 1.2 mi West 3.5 mph - 0.02 in Rain , Thunderstorm Rain
5:26 AM 64.9 °F 64.0 °F 97% 29.91 in 0.8 mi WNW 3.5 mph - 0.04 in Rain , Thunderstorm Heavy Rain
5:35 AM 64.9 °F 64.0 °F 97% 29.91 in 1.0 mi Calm Calm - 0.11 in Rain , Thunderstorm Heavy Thunderstorms and Rain
5:42 AM 64.9 °F 64.0 °F 97% 29.92 in 2.0 mi Calm Calm - 0.12 in Rain , Thunderstorm Thunderstorms and Rain
5:53 AM 64.9 °F 64.0 °F 97% 29.92 in 2.5 mi SSW 4.6 mph - 0.13 in Rain , Thunderstorm Rain
6:06 AM 64.9 °F 64.0 °F 97% 29.93 in 3.0 mi SSW 3.5 mph - 0.01 in Rain , Thunderstorm Light Rain
6:15 AM 64.9 °F 64.0 °F 97% 29.93 in 4.0 mi Calm Calm - 0.01 in Rain Rain
6:53 AM 64.9 °F 63.0 °F 93% 29.93 in 3.0 mi Calm Calm - 0.06 in Rain Rain
7:06 AM 64.9 °F 63.0 °F 93% 29.93 in 2.5 mi Calm Calm - 0.02 in Rain Rain
7:13 AM 64.0 °F 63.0 °F 96% 29.92 in 3.0 mi Calm Calm - 0.02 in Rain Rain
7:20 AM 64.0 °F 63.0 °F 96% 29.91 in 1.8 mi NNE 6.9 mph - 0.02 in Rain Light Rain
7:31 AM 64.9 °F 64.0 °F 97% 29.89 in 3.0 mi NNE 5.8 mph - 0.03 in Rain Light Rain
7:45 AM 64.9 °F 64.0 °F 97% 29.89 in 4.0 mi Calm Calm - 0.03 in   Overcast
7:53 AM 64.9 °F 64.0 °F 97% 29.89 in 4.0 mi ENE 4.6 mph - 0.03 in   Mostly Cloudy
8:53 AM 66.0 °F 64.0 °F 93% 29.88 in 9.0 mi East 3.5 mph - N/A   Clear
9:40 AM 66.9 °F 64.9 °F 93% 29.93 in 5.0 mi Calm Calm - N/A   Overcast
9:48 AM 66.2 °F 64.4 °F 94% 29.94 in 3.0 mi SSW 4.6 mph - 0.01 in Rain Light Rain
9:53 AM 66.9 °F 64.9 °F 93% 29.93 in 3.0 mi West 4.6 mph - 0.01 in Rain Rain
10:15 AM 66.9 °F 64.9 °F 93% 29.94 in 6.0 mi South 3.5 mph - 0.00 in Rain Light Rain
10:31 AM 66.9 °F 64.9 °F 93% 29.95 in 9.0 mi South 4.6 mph - 0.00 in   Overcast
10:53 AM 66.9 °F 64.9 °F 93% 29.95 in 8.0 mi South 3.5 mph - 0.00 in Rain Light Rain
11:53 AM 68.0 °F 64.9 °F 90% 29.94 in 9.0 mi ENE 4.6 mph - 0.01 in   Scattered Clouds
12:20 PM 68.0 °F 64.9 °F 90% 29.96 in 10.0 mi Calm Calm - 0.00 in Rain Light Rain
12:33 PM 68.0 °F 64.9 °F 90% 29.96 in 9.0 mi Calm Calm - 0.00 in   Mostly Cloudy
12:53 PM 69.1 °F 66.0 °F 90% 29.95 in 8.0 mi NE 5.8 mph - 0.00 in   Mostly Cloudy
1:03 PM 69.1 °F 66.0 °F 90% 29.94 in 10.0 mi NE 5.8 mph - N/A   Mostly Cloudy
1:38 PM 70.0 °F 66.0 °F 87% 29.89 in 10.0 mi East 8.1 mph - N/A   Scattered Clouds
1:53 PM 71.1 °F 66.0 °F 84% 29.89 in 10.0 mi Calm Calm - N/A   Partly Cloudy
2:24 PM 73.0 °F 66.9 °F 81% 29.89 in 10.0 mi NE 9.2 mph - N/A   Mostly Cloudy
2:53 PM 72.0 °F 66.0 °F 81% 29.89 in 10.0 mi ENE 5.8 mph - N/A   Mostly Cloudy
3:10 PM 73.0 °F 66.0 °F 79% 29.89 in 10.0 mi ENE 4.6 mph - N/A   Scattered Clouds
3:53 PM 72.0 °F 64.9 °F 78% 29.90 in 10.0 mi ENE 8.1 mph - N/A   Clear
4:53 PM 70.0 °F 64.9 °F 84% 29.90 in 10.0 mi Variable 5.8 mph - N/A   Overcast
5:53 PM 70.0 °F 64.9 °F 84% 29.90 in 10.0 mi ENE 6.9 mph - N/A   Overcast
6:11 PM 69.1 °F 64.9 °F 87% 29.91 in 10.0 mi ENE 5.8 mph - N/A   Overcast
6:53 PM 69.1 °F 64.9 °F 87% 29.91 in 10.0 mi NE 4.6 mph - N/A   Overcast
7:45 PM 68.0 °F 64.0 °F 87% 29.90 in 10.0 mi ENE 5.8 mph - N/A   Scattered Clouds
7:53 PM 66.9 °F 64.0 °F 90% 29.90 in 10.0 mi Variable 5.8 mph - N/A   Partly Cloudy
8:11 PM 66.9 °F 64.0 °F 90% 29.91 in 10.0 mi Variable 5.8 mph - N/A   Mostly Cloudy
9:53 PM 68.0 °F 64.0 °F 87% 29.89 in 10.0 mi ENE 9.2 mph - N/A   Overcast
10:53 PM 68.0 °F 64.0 °F 87% 29.89 in 9.0 mi ENE 6.9 mph - N/A   Overcast
11:53 PM 69.1 °F 64.9 °F 87% 29.88 in 6.0 mi NNE 3.5 mph - N/A   Overcast